When you browse on this site, cookies collect data to enhance your experience and personalize the content and advertising you see.
Visit our Privacy Policy to learn more. By continuing to use the site, you agree to this use of cookies and data.
  • Em Portugal
  • Lista de países
  • Para 7 dias
  • Temperatura da água
  • Mapa do tempo
  • Widgets de tempo
  • user-avatar
    Iniciar Sessão

    Previsão horária em Ravda

    Hoje, 30 Maio, Sábado

    Tempo Temperatura Precipitação Vento Pressão Humidade
    00:00 +13°C° 0 mm 2 m/s 760 mmHg 85%
    01:00 +13°C° 0 mm 2 m/s 760 mmHg 86%
    02:00 +13°C° 0 mm 2 m/s 760 mmHg 86%
    03:00 +13°C° 0 mm 2 m/s 760 mmHg 86%
    04:00 +13°C° 0 mm 2 m/s 760 mmHg 86%
    05:00 +13°C° 0 mm 2 m/s 760 mmHg 87%
    06:00 +13°C° 0 mm 3 m/s 760 mmHg 83%
    07:00 +16°C° 0 mm 3 m/s 760 mmHg 80%
    08:00 +17°C° 0 mm 3 m/s 760 mmHg 76%
    09:00 +18°C° 0.1 mm 3 m/s 760 mmHg 71%
    10:00 +20°C° 0.1 mm 3 m/s 760 mmHg 66%
    11:00 +21°C° 0.1 mm 3 m/s 759 mmHg 61%
    12:00 +21°C° 0.7 mm 4 m/s 759 mmHg 63%
    13:00 +21°C° 0.7 mm 4 m/s 759 mmHg 66%
    14:00 +21°C° 0.7 mm 4 m/s 759 mmHg 68%
    15:00 +21°C° 0.4 mm 4 m/s 759 mmHg 69%
    16:00 +21°C° 0.4 mm 4 m/s 759 mmHg 69%
    17:00 +21°C° 0.4 mm 4 m/s 758 mmHg 70%
    18:00 +19°C° 0.1 mm 3 m/s 758 mmHg 75%
    19:00 +18°C° 0.1 mm 3 m/s 759 mmHg 80%
    20:00 +16°C° 0.1 mm 2 m/s 759 mmHg 85%
    21:00 +16°C° 0 mm 2 m/s 759 mmHg 86%
    22:00 +15°C° 0 mm 2 m/s 759 mmHg 87%
    23:00 +15°C° 0 mm 2 m/s 759 mmHg 87%

    Amanhã, 31 Maio, Domingo

    Tempo Temperatura Precipitação Vento Pressão Humidade
    00:00 +14°C° 0 mm 2 m/s 759 mmHg 88%
    01:00 +14°C° 0 mm 2 m/s 759 mmHg 88%
    02:00 +14°C° 0 mm 2 m/s 759 mmHg 88%
    03:00 +14°C° 0 mm 2 m/s 758 mmHg 89%
    04:00 +12°C° 0 mm 3 m/s 758 mmHg 90%
    05:00 +12°C° 0 mm 3 m/s 758 mmHg 90%
    06:00 +14°C° 0 mm 3 m/s 758 mmHg 84%
    07:00 +17°C° 0 mm 3 m/s 758 mmHg 78%
    08:00 +19°C° 0 mm 3 m/s 758 mmHg 72%
    09:00 +20°C° 0.6 mm 2 m/s 758 mmHg 70%
    10:00 +21°C° 0.6 mm 2 m/s 759 mmHg 68%
    11:00 +23°C° 0.6 mm 2 m/s 759 mmHg 67%
    12:00 +21°C° 1.2 mm 2 m/s 758 mmHg 69%
    13:00 +21°C° 1.2 mm 2 m/s 758 mmHg 72%
    14:00 +20°C° 1.2 mm 3 m/s 757 mmHg 74%
    15:00 +20°C° 0.8 mm 3 m/s 757 mmHg 78%
    16:00 +19°C° 0.8 mm 2 m/s 757 mmHg 81%
    17:00 +19°C° 0.8 mm 2 m/s 757 mmHg 84%
    18:00 +18°C° 0.1 mm 2 m/s 757 mmHg 85%
    19:00 +17°C° 0.1 mm 2 m/s 757 mmHg 85%
    20:00 +17°C° 0.1 mm 2 m/s 757 mmHg 86%
    21:00 +16°C° 0 mm 2 m/s 757 mmHg 86%
    22:00 +16°C° 0 mm 2 m/s 757 mmHg 86%
    23:00 +15°C° 0 mm 2 m/s 757 mmHg 86%

    Depois de amanhã, 1 Junho, Segunda-feira

    Tempo Temperatura Precipitação Vento Pressão Humidade
    00:00 +15°C° 0.1 mm 1 m/s 757 mmHg 86%
    01:00 +15°C° 0.1 mm 1 m/s 757 mmHg 85%
    02:00 +15°C° 0.1 mm 1 m/s 757 mmHg 85%
    03:00 +15°C° 0.1 mm 2 m/s 757 mmHg 85%
    04:00 +13°C° 0.1 mm 3 m/s 757 mmHg 86%
    05:00 +13°C° 0.1 mm 4 m/s 756 mmHg 87%
    06:00 +13°C° 0.1 mm 3 m/s 757 mmHg 85%
    07:00 +13°C° 0.1 mm 3 m/s 757 mmHg 84%
    08:00 +13°C° 0.1 mm 3 m/s 757 mmHg 83%
    09:00 +14°C° 0.1 mm 3 m/s 757 mmHg 81%
    10:00 +14°C° 0.1 mm 3 m/s 757 mmHg 79%
    11:00 +16°C° 0.1 mm 3 m/s 757 mmHg 77%
    12:00 +16°C° 0.4 mm 2 m/s 757 mmHg 80%
    13:00 +15°C° 0.4 mm 2 m/s 757 mmHg 83%
    14:00 +15°C° 0.4 mm 2 m/s 756 mmHg 86%
    15:00 +16°C° 0.4 mm 2 m/s 756 mmHg 84%
    16:00 +16°C° 0.4 mm 2 m/s 756 mmHg 83%
    17:00 +17°C° 0.4 mm 2 m/s 756 mmHg 82%
    18:00 +16°C° 0 mm 1 m/s 756 mmHg 85%
    19:00 +15°C° 0 mm 1 m/s 756 mmHg 89%
    20:00 +14°C° 0 mm 1 m/s 756 mmHg 92%
    21:00 +14°C° 0 mm 1 m/s 756 mmHg 92%
    22:00 +14°C° 0 mm 1 m/s 756 mmHg 92%
    23:00 +14°C° 0 mm 1 m/s 756 mmHg 91%

    2 Junho, Terça-feira

    Tempo Temperatura Precipitação Vento Pressão Humidade
    00:00 +14°C° 0 mm 1 m/s 755 mmHg 91%
    01:00 +14°C° 0 mm 1 m/s 755 mmHg 91%
    02:00 +14°C° 0 mm 1 m/s 755 mmHg 91%
    03:00 +14°C° 0 mm 1 m/s 755 mmHg 91%
    04:00 +14°C° 0 mm 1 m/s 755 mmHg 92%
    05:00 +13°C° 0 mm 1 m/s 755 mmHg 92%
    06:00 +14°C° 0 mm 1 m/s 755 mmHg 90%
    07:00 +15°C° 0 mm 1 m/s 755 mmHg 87%
    08:00 +15°C° 0 mm 1 m/s 755 mmHg 85%
    09:00 +16°C° 0.2 mm 1 m/s 755 mmHg 85%
    10:00 +16°C° 0.2 mm 2 m/s 756 mmHg 85%
    11:00 +16°C° 0.2 mm 2 m/s 756 mmHg 85%
    12:00 +17°C° 0.4 mm 2 m/s 756 mmHg 84%
    13:00 +17°C° 0.4 mm 3 m/s 755 mmHg 82%
    14:00 +18°C° 0.4 mm 3 m/s 755 mmHg 81%
    15:00 +18°C° 0.3 mm 4 m/s 755 mmHg 81%
    16:00 +18°C° 0.3 mm 4 m/s 756 mmHg 80%
    17:00 +17°C° 0.3 mm 5 m/s 756 mmHg 79%
    18:00 +15°C° 0.1 mm 4 m/s 756 mmHg 82%
    19:00 +14°C° 0.1 mm 4 m/s 756 mmHg 86%
    20:00 +13°C° 0.1 mm 4 m/s 756 mmHg 89%
    21:00 +12°C° 0 mm 3 m/s 756 mmHg 89%
    22:00 +12°C° 0 mm 3 m/s 756 mmHg 90%
    23:00 +11°C° 0 mm 3 m/s 757 mmHg 90%

    3 Junho, Quarta-feira

    Tempo Temperatura Precipitação Vento Pressão Humidade
    00:00 +11°C° 0 mm 3 m/s 756 mmHg 91%
    01:00 +11°C° 0 mm 3 m/s 756 mmHg 92%
    02:00 +10°C° 0 mm 3 m/s 756 mmHg 92%
    03:00 +10°C° 0 mm 3 m/s 756 mmHg 92%
    04:00 +10°C° 0 mm 2 m/s 756 mmHg 92%
    05:00 +10°C° 0 mm 2 m/s 756 mmHg 92%
    06:00 +13°C° 0 mm 2 m/s 756 mmHg 86%
    07:00 +14°C° 0 mm 1 m/s 756 mmHg 80%
    08:00 +16°C° 0 mm 1 m/s 757 mmHg 75%
    09:00 +18°C° 0.3 mm 1 m/s 757 mmHg 74%
    10:00 +18°C° 0.3 mm 1 m/s 757 mmHg 73%
    11:00 +19°C° 0.3 mm 1 m/s 757 mmHg 73%
    12:00 +18°C° 0.3 mm 2 m/s 756 mmHg 70%
    13:00 +19°C° 0.3 mm 2 m/s 756 mmHg 68%
    14:00 +19°C° 0.3 mm 3 m/s 756 mmHg 66%
    15:00 +19°C° 0.3 mm 3 m/s 756 mmHg 68%
    16:00 +19°C° 0.3 mm 3 m/s 756 mmHg 71%
    17:00 +18°C° 0.3 mm 3 m/s 756 mmHg 73%
    18:00 +17°C° 0.1 mm 3 m/s 756 mmHg 78%
    19:00 +14°C° 0.1 mm 3 m/s 756 mmHg 84%
    20:00 +13°C° 0.1 mm 3 m/s 756 mmHg 89%
    21:00 +14°C° 0.1 mm 2 m/s 757 mmHg 89%
    22:00 +13°C° 0.1 mm 2 m/s 757 mmHg 89%
    23:00 +13°C° 0.1 mm 1 m/s 757 mmHg 89%

    4 Junho, Quinta-feira

    Tempo Temperatura Precipitação Vento Pressão Humidade
    00:00 +13°C° 0 mm 1 m/s 757 mmHg 88%
    01:00 +13°C° 0 mm 2 m/s 757 mmHg 87%
    02:00 +13°C° 0 mm 2 m/s 757 mmHg 86%
    03:00 +13°C° 0 mm 2 m/s 757 mmHg 86%
    04:00 +12°C° 0 mm 2 m/s 757 mmHg 85%
    05:00 +12°C° 0 mm 2 m/s 757 mmHg 84%
    06:00 +14°C° 0 mm 2 m/s 757 mmHg 78%
    07:00 +16°C° 0 mm 2 m/s 757 mmHg 73%
    08:00 +19°C° 0 mm 2 m/s 757 mmHg 67%
    09:00 +20°C° 0 mm 2 m/s 757 mmHg 62%
    10:00 +21°C° 0 mm 2 m/s 758 mmHg 57%
    11:00 +23°C° 0 mm 2 m/s 758 mmHg 53%
    12:00 +24°C° 0.1 mm 2 m/s 757 mmHg 54%
    13:00 +24°C° 0.1 mm 3 m/s 757 mmHg 55%
    14:00 +23°C° 0.1 mm 4 m/s 757 mmHg 57%
    15:00 +21°C° 0.3 mm 3 m/s 757 mmHg 67%
    16:00 +20°C° 0.3 mm 3 m/s 757 mmHg 76%
    17:00 +18°C° 0.3 mm 2 m/s 757 mmHg 86%
    18:00 +17°C° 0.3 mm 2 m/s 757 mmHg 89%
    19:00 +17°C° 0.3 mm 2 m/s 757 mmHg 91%
    20:00 +16°C° 0.3 mm 2 m/s 757 mmHg 94%
    21:00 +16°C° 0 mm 2 m/s 757 mmHg 95%
    22:00 +15°C° 0 mm 1 m/s 757 mmHg 95%
    23:00 +15°C° 0 mm 1 m/s 757 mmHg 96%
    Mostrar mais